This is the latest recevied weather packets stored in our database for station/object K7SKM. If no packets are shown the sender has not sent any weather packets the latest 10 day(s).
| Time | Temp. | Humidity | Pressure | Rain* | Wind** | Luminosity | Snow |
|---|---|---|---|---|---|---|---|
| 1788062790 | 17.22° C | 58% | 1023.5 hPa | 0 mm | - | 0 W/m² | - |
| 1788062486 | 17.22° C | 58% | 1023.4 hPa | 0 mm | - | 0 W/m² | - |
| 1788062184 | 17.22° C | 57% | 1023.2 hPa | 0 mm | - | 0 W/m² | - |
| 1788061879 | 17.78° C | 57% | 1023.3 hPa | 0 mm | - | 0 W/m² | - |
| 1788061575 | 17.78° C | 56% | 1023.2 hPa | 0 mm | - | 0 W/m² | - |
| 1788061274 | 17.78° C | 56% | 1023.1 hPa | 0 mm | - | 0 W/m² | - |
| 1788060969 | 17.78° C | 56% | 1023 hPa | 0 mm | - | 0 W/m² | - |
| 1788060665 | 18.33° C | 55% | 1022.8 hPa | 0 mm | - | 0 W/m² | - |
| 1788060364 | 18.33° C | 54% | 1022.8 hPa | 0 mm | - | 0 W/m² | - |
| 1788060059 | 18.33° C | 55% | 1023 hPa | 0 mm | - | 0 W/m² | - |
| 1788059754 | 18.33° C | 54% | 1022.8 hPa | 0 mm | - | 0 W/m² | - |
| 1788059450 | 18.33° C | 53% | 1022.9 hPa | 0 mm | - | 0 W/m² | - |
| 1788059145 | 18.89° C | 53% | 1022.7 hPa | 0 mm | - | 0 W/m² | - |
| 1788058840 | 18.89° C | 53% | 1022.7 hPa | 0 mm | - | 0 W/m² | - |
| 1788058539 | 18.89° C | 53% | 1022.9 hPa | 0 mm | - | 0 W/m² | - |
| 1788058233 | 18.89° C | 52% | 1022.7 hPa | 0 mm | - | 0 W/m² | - |
| 1788057928 | 18.89° C | 52% | 1022.7 hPa | 0 mm | - | 1 W/m² | - |
| 1788057627 | 18.89° C | 52% | 1022.6 hPa | 0 mm | - | 3 W/m² | - |
| 1788057325 | 18.89° C | 51% | 1022.6 hPa | 0 mm | - | 6 W/m² | - |
| 1788057020 | 19.44° C | 51% | 1022.6 hPa | 0 mm | - | 9 W/m² | - |
| 1788056714 | 19.44° C | 51% | 1022.5 hPa | 0 mm | - | 14 W/m² | - |
| 1788056409 | 19.44° C | 50% | 1022.3 hPa | 0 mm | - | 20 W/m² | - |
| 1788056104 | 19.44° C | 50% | 1022.3 hPa | 0 mm | - | 20 W/m² | - |
| 1788055798 | 19.44° C | 50% | 1022.5 hPa | 0 mm | - | 21 W/m² | - |
| 1788055492 | 20° C | 50% | 1022.4 hPa | 0 mm | - | 21 W/m² | - |
* Rain latest hour (hover to see other rain measurements)
** Current wind speed in m/s (hover to see current wind gust speed)